EW3867 Weather Reports


Display with metric or nautical units.
time (UTC)temp
F
wind
direction
speed
MPH
gust
MPH
rain 1hr
in
rain 24hr
in
rain mn
in
humidity
%
barometer
mb
20260503054757 42 167 0.0 0.0 0.00 0.00 0.00 38 1015.0
20260503053741 43 167 0.0 0.0 0.00 0.00 0.00 37 1015.0
20260503052719 43 167 0.0 0.0 0.00 0.00 0.00 37 1015.0
20260503051713 43 167 0.0 0.0 0.00 0.00 0.00 37 1014.9
20260503050730 42 167 0.0 0.0 0.00 0.00 0.00 37 1014.9
20260503045706 42 167 0.0 0.0 0.00 0.00 0.00 37 1014.9
20260503044653 43 167 0.0 2.0 0.00 0.00 0.00 36 1015.0
20260503043655 43 167 0.0 0.0 0.00 0.00 0.00 35 1014.9
20260503042632 43 167 0.0 0.0 0.00 0.00 0.00 34 1014.9
20260503040432 45 167 0.0 0.0 0.00 0.00 0.00 32 1014.9
20260503035440 45 167 0.0 0.0 0.00 0.00 0.00 32 1014.8
20260503034431 46 167 0.0 0.0 0.00 0.00 0.00 31 1014.6
20260503033415 47 167 0.0 0.0 0.00 0.00 0.00 29 1014.6
20260503032355 50 167 0.0 0.0 0.00 0.00 0.00 27 1014.5
20260503031403 51 167 0.0 0.0 0.00 0.00 0.00 27 1014.3
20260503030404 52 167 0.0 0.0 0.00 0.00 0.00 26 1014.2
20260503025330 53 167 0.0 0.0 0.00 0.00 0.00 25 1014.0
20260503024335 54 167 0.0 0.0 0.00 0.00 0.00 25 1013.9
20260503023347 55 167 0.0 0.0 0.00 0.00 0.00 24 1013.8
20260503022340 55 167 0.0 0.0 0.00 0.00 0.00 24 1013.8
20260503021335 56 167 0.0 0.0 0.00 0.00 0.00 23 1013.6
20260503020345 56 167 0.0 0.0 0.00 0.00 0.00 23 1013.6
20260503015354 57 167 0.0 0.0 0.00 0.00 0.00 22 1013.5
20260503014346 58 167 0.0 0.0 0.00 0.00 0.00 21 1013.4
20260503013341 59 167 0.0 0.0 0.00 0.00 0.00 21 1013.4
20260503012355 60 167 0.0 2.0 0.00 0.00 0.00 20 1013.4
20260503011410 61 167 3.0 10.0 0.00 0.00 0.00 20 1013.5
20260503010422 62 183 0.0 8.0 0.00 0.00 0.00 20 1013.3
20260503005426 63 184 0.0 6.0 0.00 0.00 0.00 19 1013.4
20260503004442 64 199 0.0 0.0 0.00 0.00 0.00 19 1013.5
20260503003431 64 200 0.0 8.0 0.00 0.00 0.00 19 1013.5
20260503002418 64 195 3.0 11.0 0.00 0.00 0.00 19 1013.7
20260503001408 64 150 0.0 9.0 0.00 0.00 0.00 19 1013.8
20260502235306 65 168 6.0 15.0 0.00 0.00 0.00 19 1013.9
20260502234322 65 182 0.0 0.0 0.00 0.00 0.00 19 1014.0
20260502233334 65 188 0.0 1.0 0.00 0.00 0.00 19 1014.0
20260502232308 65 190 1.0 11.0 0.00 0.00 0.00 19 1014.1
20260502231325 65 178 4.0 11.0 0.00 0.00 0.00 20 1014.0
20260502225123 65 130 3.0 11.0 0.00 0.00 0.00 20 1014.1
20260502224130 65 146 6.0 13.0 0.00 0.00 0.00 19 1014.2
20260502223151 65 186 4.0 15.0 0.00 0.00 0.00 20 1014.3
20260502222214 65 195 4.0 18.0 0.00 0.00 0.00 20 1014.4
20260502221149 65 178 4.0 18.0 0.00 0.00 0.00 22 1014.7
20260502220126 65 196 1.0 11.0 0.00 0.00 0.00 22 1014.8
20260502214029 64 145 7.0 15.0 0.00 0.00 0.00 21 1015.3
20260502212957 65 177 4.0 12.0 0.00 0.00 0.00 21 1015.4
20260502211934 65 153 1.0 11.0 0.00 0.00 0.00 20 1015.6
20260502210937 64 182 0.0 4.0 0.00 0.00 0.00 24 1015.8
20260502205944 64 134 4.0 8.0 0.00 0.00 0.00 23 1016.1
20260502204954 64 116 0.0 0.0 0.00 0.00 0.00 22 1016.2
20260502202848 63 184 4.0 3.0 0.00 0.00 0.00 24 1016.5
20260502201911 64 178 4.0 15.0 0.00 0.00 0.00 25 1016.6
20260502200849 63 128 1.0 10.0 0.00 0.00 0.00 25 1016.7
20260502194748 62 143 4.0 14.0 0.00 0.00 0.00 24 1017.1
20260502193803 62 125 4.0 13.0 0.00 0.00 0.00 24 1017.3
20260502192752 61 157 0.0 8.0 0.00 0.00 0.00 28 1017.2
20260502190712 61 138 1.0 8.0 0.00 0.00 0.00 28 1017.5
20260502185639 61 180 7.0 15.0 0.00 0.00 0.00 28 1017.7
20260502184653 61 139 4.0 14.0 0.00 0.00 0.00 28 1017.9
20260502183627 61 130 7.0 21.0 0.00 0.00 0.00 28 1018.0
20260502182614 61 140 8.0 17.0 0.00 0.00 0.00 27 1018.2
20260502181622 60 174 6.0 18.0 0.00 0.00 0.00 29 1018.2
20260502180552 59 79 4.0 18.0 0.00 0.00 0.00 29 1018.4
20260502163522 56 100 9.0 16.0 0.00 0.00 0.00 37 1018.5
20260502162530 56 109 11.0 18.0 0.00 0.00 0.00 36 1018.5
20260502161544 56 115 13.0 18.0 0.00 0.00 0.00 35 1018.6
20260502160527 55 138 9.0 14.0 0.00 0.00 0.00 38 1018.6
20260502152250 53 97 10.0 18.0 0.00 0.00 0.00 39 1018.4
20260502151239 53 78 7.0 15.0 0.00 0.00 0.00 42 1018.4
20260502150240 51 81 8.0 14.0 0.00 0.00 0.00 45 1018.5
20260502130717 41 51 8.0 13.0 0.00 0.00 0.00 64 1018.1
20260502122520 37 51 4.0 13.0 0.00 0.00 0.00 68 1017.8
20260502121530 37 51 7.0 13.0 0.00 0.00 0.00 68 1017.7
20260502115354 38 49 10.0 13.0 0.00 0.00 0.00 68 1017.6
20260502114401 37 49 9.0 13.0 0.00 0.00 0.00 69 1017.6
20260502113408 37 49 10.0 13.0 0.00 0.00 0.00 69 1017.6
20260502112403 37 44 10.0 15.0 0.00 0.00 0.00 69 1017.5
20260502111331 38 40 11.0 15.0 0.00 0.00 0.00 68 1017.5
20260502110340 38 46 9.0 13.0 0.00 0.00 0.00 68 1017.5
20260502105356 38 51 7.0 12.0 0.00 0.00 0.00 68 1017.5
20260502104326 38 53 7.0 11.0 0.00 0.00 0.00 68 1017.5
20260502103328 39 55 4.0 12.0 0.00 0.00 0.00 67 1017.6
20260502102330 39 55 6.0 12.0 0.00 0.00 0.00 68 1017.7
20260502101352 38 53 4.0 12.0 0.00 0.00 0.00 69 1017.8
20260502100357 38 51 7.0 11.0 0.00 0.00 0.00 69 1017.7
20260502091038 38 42 1.0 10.0 0.00 0.00 0.00 70 1017.5
20260502070458 38 58 0.0 9.0 0.00 0.00 0.00 65 1016.9
20260502065455 39 61 3.0 10.0 0.00 0.00 0.00 64 1016.9
20260502064449 39 109 0.0 8.0 0.00 0.00 0.00 63 1016.8
20260502063514 40 112 0.0 5.0 0.00 0.00 0.00 62 1016.6
20260502062519 40 122 0.0 0.0 0.00 0.00 0.00 62 1016.5